MIR-SAT 1 (48868 NORAD) Tracking and Keplerian Element Data

This shows tracking and keplerian element data for the satellite.

Feedback or suggestion? Click here.




ElementValue
Catalog48868
NameMIR-SAT 1
Epoch Orbit1786
Epoch Day288.11535342
Epoch Year2021
RAAN107.6368
Inclination51.6401
Eccentricity0.0003447
Argument of Perigee221.5122
Mean Anonmoly138.5607
Mean Motion15.53714213
Decay Rate0.00032411
L11 48868U 98067SP 21288.11535342 .00032411 00000-0 50226-3 0 9998
L22 48868 51.6401 107.6368 0003447 221.5122 138.5607 15.53714213 17861

Live tracking and technical data element details for MIR-SAT 1 (NORAD 48868). MIR-SAT 1 can be tracked NOW for your location showing map with azimuth and elevation plus other details from your city location.

Track the satellite on the map from your city or location and see movement details for azimuth, elevation, latitude, longitude, range, height, and movement on the map or in text.







IsCatalogInMostPopularTable: catalog: 48868, numindb: 28
Update: records affected: 1



GetName: 48868 MIR-SAT 1

Hit Count: updated at: Tue, 19 Oct 2021 08:20:38 GMT